RADARSAT 2

导读 | 星芒AI

RADARSAT 2 是加拿大于2007年发射的地球观测卫星,搭载先进的合成孔径雷达(SAR)系统,可在任何天气和光照条件下提供高分辨率的地球表面图像。该卫星主要用于环境监测、灾害管理、海洋观测和国家安全等领域。其多极化和多种分辨率模式使其具备高度灵活性,支持多种应用需求。RADARSAT 2 是加拿大航天局(CSA)与私营部门合作的成果,为全球用户提供重要的遥感数据服务。

基本信息
目录编号:
32382
目录名称:
RADARSAT 2
国际标识:
2007-061A
轨道中心:
EARTH
卫星名称:
RADARSAT 2
卫星全名:
--
卫星状态:
在轨 (已飞行6529 天)
发射日期:
2007-12-14 UTC
国别 :
加拿大 (CA)
星等 :
--
轨道信息
数据来源 国际轨道数据 AOE轨道数据
星历时间 2025-10-28T23:27:37+0800
16小时前
查看轨道信息
2025-10-26T17:00:00+0800
2天前
查看轨道信息
半长轴 7169.923km 7169.933km
偏心率 0.0001131 0.0001303
轨道倾角 98.581° 98.581°
近地点辐角 90.105° 95.461°
升交点赤经 306.885° 304.649°
平近点角 270.026° 109.718°
近地点 790.977km 790.863km
远地点 792.599km 792.733km
周期 100.700分钟 100.701分钟
每日圈数 14.299837 14.299806
详细信息
使用方式:
暂无
2D轨道图
3D轨道图
轨道高度分析图
轨道倾角分析图
轨道综合分析图
查看轨道综合分析图